ANA183 PHNL-RJAA

Flight info

Callsign ANA183
Flight time N/A
Altitude 36000
Route KEOLA3 LILIA DCT DOGIF DCT 25N170W/N0486F380 27N180E 29N170E 31N160E 33N150E/N0486F400 MORAY OTR15 POVAL Y813 LUBLA
Aircraft A388/J-SADE2E3FGHIJ3J4J5M1RWXY/LB1D1

Departure

Time N/A
Airport Daniel K. Inouye International Airport (PHNL)

Arrival

Time 2026-05-05 14:37
Airport Narita International Airport (RJAA)
Time Latitude Longitude Altitude Speed Heading
2026-05-05 13:39 34.38050 145.31054 36345 ft 398 kts 273°
2026-05-05 13:39 34.38438 145.27780 36345 ft 398 kts 273°
2026-05-05 13:39 34.39223 145.21153 36360 ft 398 kts 273°
2026-05-05 13:40 34.40004 145.14530 36359 ft 397 kts 272°
2026-05-05 13:40 34.40780 145.07912 36353 ft 397 kts 272°
2026-05-05 13:41 34.41551 145.01302 36350 ft 396 kts 272°
2026-05-05 13:41 34.42318 144.94732 36341 ft 397 kts 273°
2026-05-05 13:42 34.43098 144.88123 36339 ft 396 kts 272°
2026-05-05 13:42 34.43843 144.81511 36339 ft 396 kts 272°
2026-05-05 13:43 34.44595 144.74902 36339 ft 396 kts 272°
2026-05-05 13:43 34.45344 144.68326 36364 ft 396 kts 272°
2026-05-05 13:44 34.46093 144.61722 36358 ft 395 kts 272°
2026-05-05 13:44 34.46837 144.55126 36354 ft 395 kts 272°
2026-05-05 13:45 34.47653 144.48539 36343 ft 397 kts 275°
2026-05-05 13:45 34.49010 144.42060 36334 ft 400 kts 277°
2026-05-05 13:46 34.50400 144.35539 36337 ft 400 kts 277°
2026-05-05 13:46 34.51783 144.29011 36373 ft 400 kts 277°
2026-05-05 13:47 34.53162 144.22490 36357 ft 399 kts 277°
2026-05-05 13:47 34.54535 144.15977 36350 ft 398 kts 277°
2026-05-05 13:48 34.55892 144.09518 36349 ft 398 kts 277°
2026-05-05 13:48 34.57255 144.03013 36342 ft 398 kts 277°
2026-05-05 13:49 34.58614 143.96510 36345 ft 397 kts 277°
2026-05-05 13:49 34.59970 143.90005 36370 ft 397 kts 277°
2026-05-05 13:50 34.61309 143.83562 36366 ft 396 kts 277°
2026-05-05 13:50 34.62651 143.77089 36353 ft 395 kts 277°
2026-05-05 13:51 34.63987 143.70618 36333 ft 395 kts 277°
2026-05-05 13:51 34.65319 143.64152 36329 ft 394 kts 277°
2026-05-05 13:52 34.66637 143.57735 36333 ft 394 kts 277°
2026-05-05 13:52 34.67959 143.51281 36345 ft 394 kts 277°
2026-05-05 13:53 34.69280 143.44812 36328 ft 394 kts 277°
2026-05-05 13:53 34.70596 143.38351 36328 ft 394 kts 277°
2026-05-05 13:54 34.71961 143.31626 36325 ft 394 kts 277°
2026-05-05 13:54 34.73271 143.25155 36325 ft 394 kts 277°
2026-05-05 13:55 34.74577 143.18684 36317 ft 395 kts 277°
2026-05-05 13:55 34.75883 143.12197 36326 ft 395 kts 277°
2026-05-05 13:56 34.77187 143.05702 36327 ft 395 kts 277°
2026-05-05 13:56 34.78477 142.99252 36330 ft 395 kts 277°
2026-05-05 13:57 34.79775 142.92744 36324 ft 396 kts 277°
2026-05-05 13:57 34.81064 142.86228 36326 ft 396 kts 277°
2026-05-05 13:58 34.82346 142.79708 36328 ft 396 kts 277°
2026-05-05 13:58 34.83618 142.73226 36324 ft 396 kts 277°
2026-05-05 13:59 34.85534 142.63425 36325 ft 397 kts 277°
2026-05-05 14:00 34.86807 142.56895 36189 ft 393 kts 277°
2026-05-05 14:00 34.87224 142.54758 36038 ft 391 kts 277°
2026-05-05 14:00 34.88053 142.50485 35705 ft 393 kts 277°
2026-05-05 14:00 34.88679 142.47243 35257 ft 393 kts 277°
2026-05-05 14:01 34.89308 142.43986 34346 ft 397 kts 276°
2026-05-05 14:01 34.89938 142.40724 33659 ft 393 kts 276°
2026-05-05 14:01 34.90559 142.37526 33227 ft 384 kts 276°
2026-05-05 14:01 34.91168 142.34370 33084 ft 382 kts 276°
2026-05-05 14:02 34.91774 142.31204 32941 ft 386 kts 276°
2026-05-05 14:02 34.92382 142.28023 32336 ft 386 kts 276°
2026-05-05 14:02 34.92994 142.24815 31392 ft 390 kts 277°
2026-05-05 14:02 34.93598 142.21670 30826 ft 383 kts 277°
2026-05-05 14:03 34.94197 142.18561 30408 ft 372 kts 277°
2026-05-05 14:03 34.94780 142.15522 29834 ft 364 kts 277°
2026-05-05 14:03 34.95348 142.12548 29286 ft 356 kts 277°
2026-05-05 14:03 34.95902 142.09636 28767 ft 349 kts 277°
2026-05-05 14:04 34.96443 142.06783 28264 ft 342 kts 277°
2026-05-05 14:04 34.96974 142.03980 27758 ft 337 kts 277°
2026-05-05 14:04 34.97496 142.01216 27278 ft 333 kts 277°
2026-05-05 14:04 34.98014 141.98470 26789 ft 334 kts 278°
2026-05-05 14:05 34.98531 141.95739 26308 ft 335 kts 278°
2026-05-05 14:05 34.99057 141.92973 25810 ft 335 kts 278°
2026-05-05 14:05 34.99583 141.90207 25336 ft 335 kts 279°
2026-05-05 14:05 35.00109 141.87440 24845 ft 334 kts 279°
2026-05-05 14:06 35.00633 141.84680 24372 ft 334 kts 279°
2026-05-05 14:06 35.01156 141.81920 23885 ft 334 kts 279°
2026-05-05 14:06 35.01695 141.79163 23351 ft 334 kts 283°
2026-05-05 14:06 35.02613 141.76530 22873 ft 342 kts 295°
2026-05-05 14:07 35.04039 141.74214 22380 ft 351 kts 308°
2026-05-05 14:07 35.05950 141.72312 21880 ft 359 kts 322°
2026-05-05 14:07 35.08187 141.70917 21361 ft 362 kts 329°
2026-05-05 14:07 35.10451 141.69584 20848 ft 360 kts 329°
2026-05-05 14:08 35.12696 141.68242 20339 ft 359 kts 329°
2026-05-05 14:08 35.14934 141.66895 19830 ft 357 kts 330°
2026-05-05 14:08 35.17157 141.65555 19329 ft 356 kts 330°
2026-05-05 14:08 35.19380 141.64215 18828 ft 355 kts 331°
2026-05-05 14:09 35.21598 141.62878 18291 ft 354 kts 331°
2026-05-05 14:09 35.23770 141.61571 17802 ft 352 kts 331°
2026-05-05 14:09 35.25959 141.60252 17311 ft 349 kts 331°
2026-05-05 14:09 35.28135 141.58942 16824 ft 347 kts 330°
2026-05-05 14:10 35.30297 141.57638 16347 ft 345 kts 330°
2026-05-05 14:10 35.32439 141.56341 15874 ft 343 kts 331°
2026-05-05 14:10 35.34574 141.55050 15401 ft 341 kts 331°
2026-05-05 14:10 35.36693 141.53767 14947 ft 339 kts 332°
2026-05-05 14:11 35.38763 141.52514 14464 ft 336 kts 331°
2026-05-05 14:11 35.40741 141.50946 13885 ft 344 kts 314°
2026-05-05 14:11 35.42209 141.48630 13605 ft 348 kts 300°
2026-05-05 14:11 35.43474 141.46085 13374 ft 348 kts 298°
2026-05-05 14:12 35.44701 141.43560 13118 ft 346 kts 298°
2026-05-05 14:12 35.45920 141.41015 12867 ft 344 kts 298°
2026-05-05 14:12 35.47126 141.38472 12610 ft 346 kts 298°
2026-05-05 14:12 35.48326 141.35941 12346 ft 341 kts 297°
2026-05-05 14:13 35.49503 141.33454 12116 ft 341 kts 297°
2026-05-05 14:13 35.50685 141.30957 11873 ft 338 kts 297°
2026-05-05 14:13 35.51862 141.28462 11623 ft 339 kts 297°
2026-05-05 14:13 35.53041 141.25964 11381 ft 339 kts 297°
2026-05-05 14:14 35.54218 141.23466 11145 ft 339 kts 298°
2026-05-05 14:14 35.55392 141.20980 10902 ft 336 kts 297°
2026-05-05 14:14 35.56559 141.18506 10638 ft 332 kts 297°
2026-05-05 14:14 35.57691 141.16112 10554 ft 314 kts 297°
2026-05-05 14:15 35.58752 141.13862 10552 ft 297 kts 297°
2026-05-05 14:15 35.59753 141.11733 10502 ft 290 kts 297°
2026-05-05 14:15 35.60759 141.09584 10282 ft 291 kts 297°
2026-05-05 14:15 35.61766 141.07436 10032 ft 289 kts 296°
2026-05-05 14:16 35.62760 141.05316 9860 ft 286 kts 297°
2026-05-05 14:16 35.63750 141.03202 9730 ft 286 kts 296°
2026-05-05 14:16 35.64740 141.01092 9600 ft 283 kts 296°
2026-05-05 14:16 35.65724 140.98986 9474 ft 285 kts 297°
2026-05-05 14:17 35.66708 140.96884 9340 ft 283 kts 297°
2026-05-05 14:17 35.67679 140.94806 9216 ft 285 kts 297°
2026-05-05 14:17 35.68663 140.92700 9089 ft 283 kts 297°
2026-05-05 14:17 35.69640 140.90616 8959 ft 281 kts 297°
2026-05-05 14:18 35.70616 140.88523 8783 ft 283 kts 297°
2026-05-05 14:18 35.71595 140.86427 8492 ft 284 kts 297°
2026-05-05 14:18 35.72566 140.84343 8193 ft 277 kts 297°
2026-05-05 14:18 35.73511 140.82318 7910 ft 270 kts 297°
2026-05-05 14:19 35.74437 140.80332 7633 ft 264 kts 297°
2026-05-05 14:19 35.75328 140.78421 7354 ft 259 kts 298°
2026-05-05 14:19 35.76217 140.76510 7066 ft 255 kts 298°
2026-05-05 14:19 35.77086 140.74643 6794 ft 250 kts 298°
2026-05-05 14:20 35.77947 140.72789 6516 ft 245 kts 298°
2026-05-05 14:20 35.78782 140.70997 6260 ft 240 kts 297°
2026-05-05 14:20 35.79626 140.69180 6052 ft 253 kts 297°
2026-05-05 14:20 35.80519 140.67246 6037 ft 264 kts 297°
2026-05-05 14:21 35.81435 140.65265 6036 ft 266 kts 297°
2026-05-05 14:21 35.82347 140.63302 6032 ft 269 kts 298°
2026-05-05 14:21 35.83274 140.61306 6005 ft 269 kts 297°
2026-05-05 14:21 35.84260 140.59351 6001 ft 270 kts 304°
2026-05-05 14:22 35.85450 140.57560 5997 ft 270 kts 307°
2026-05-05 14:22 35.86645 140.55769 6015 ft 270 kts 307°
2026-05-05 14:22 35.87830 140.53973 6013 ft 270 kts 307°
2026-05-05 14:22 35.89011 140.52177 6016 ft 270 kts 307°
2026-05-05 14:23 35.90194 140.50377 6013 ft 269 kts 307°
2026-05-05 14:23 35.91352 140.48612 6019 ft 270 kts 307°
2026-05-05 14:23 35.92537 140.46808 6030 ft 270 kts 307°
2026-05-05 14:23 35.93717 140.45009 6029 ft 270 kts 307°
2026-05-05 14:24 35.94899 140.43208 6030 ft 270 kts 307°
2026-05-05 14:24 35.96222 140.41549 6027 ft 274 kts 320°
2026-05-05 14:24 35.97858 140.40333 6025 ft 277 kts 333°
2026-05-05 14:24 35.99617 140.39365 6028 ft 277 kts 333°
2026-05-05 14:25 36.01368 140.38371 6027 ft 277 kts 333°
2026-05-05 14:25 36.03089 140.37379 6031 ft 277 kts 333°
2026-05-05 14:25 36.04833 140.36370 6018 ft 277 kts 333°
2026-05-05 14:25 36.06573 140.35363 6020 ft 277 kts 333°
2026-05-05 14:26 36.08320 140.34353 6007 ft 277 kts 333°
2026-05-05 14:26 36.10055 140.33330 6016 ft 275 kts 328°
2026-05-05 14:26 36.11461 140.31796 5863 ft 269 kts 303°
2026-05-05 14:26 36.12160 140.29722 5421 ft 262 kts 277°
2026-05-05 14:27 36.12179 140.27481 5043 ft 258 kts 265°
2026-05-05 14:27 36.12080 140.25288 4949 ft 260 kts 265°
2026-05-05 14:27 36.11998 140.23049 4814 ft 260 kts 265°
2026-05-05 14:27 36.11792 140.20853 4676 ft 256 kts 250°
2026-05-05 14:28 36.10880 140.19007 4555 ft 253 kts 224°
2026-05-05 14:28 36.09405 140.17885 4410 ft 251 kts 198°
2026-05-05 14:28 36.07682 140.17662 4301 ft 250 kts 180°
2026-05-05 14:28 36.05944 140.17718 4153 ft 250 kts 180°
2026-05-05 14:29 36.04218 140.17862 4033 ft 250 kts 171°
2026-05-05 14:29 36.02600 140.18546 4015 ft 238 kts 156°
2026-05-05 14:29 36.01265 140.19483 4004 ft 210 kts 152°
2026-05-05 14:29 36.00093 140.20365 4010 ft 186 kts 153°
2026-05-05 14:30 35.99087 140.21099 4019 ft 154 kts 154°
2026-05-05 14:30 35.98143 140.21776 4028 ft 168 kts 154°
2026-05-05 14:30 35.97094 140.22535 4014 ft 179 kts 153°
2026-05-05 14:30 35.96094 140.23277 4014 ft 155 kts 154°
2026-05-05 14:31 35.95211 140.23921 4010 ft 142 kts 154°
2026-05-05 14:31 35.94375 140.24525 3942 ft 138 kts 154°
2026-05-05 14:31 35.93554 140.25122 3782 ft 136 kts 155°
2026-05-05 14:31 35.92750 140.25707 3599 ft 136 kts 155°
2026-05-05 14:32 35.91939 140.26298 3431 ft 135 kts 155°
2026-05-05 14:32 35.91138 140.26883 3242 ft 133 kts 155°
2026-05-05 14:32 35.90345 140.27458 3072 ft 131 kts 155°
2026-05-05 14:32 35.89561 140.28028 2899 ft 130 kts 155°
2026-05-05 14:33 35.88786 140.28592 2743 ft 129 kts 155°
2026-05-05 14:33 35.88015 140.29152 2542 ft 129 kts 154°
2026-05-05 14:33 35.87246 140.29713 2378 ft 128 kts 155°
2026-05-05 14:33 35.86488 140.30262 2210 ft 128 kts 154°
2026-05-05 14:34 35.85730 140.30815 2034 ft 125 kts 154°
2026-05-05 14:34 35.84979 140.31359 1857 ft 125 kts 154°
2026-05-05 14:34 35.84225 140.31908 1687 ft 126 kts 154°
2026-05-05 14:34 35.83467 140.32460 1506 ft 127 kts 154°
2026-05-05 14:35 35.82706 140.33008 1343 ft 126 kts 154°
2026-05-05 14:35 35.81950 140.33559 1170 ft 126 kts 153°
2026-05-05 14:35 35.81193 140.34109 997 ft 127 kts 153°
2026-05-05 14:35 35.80425 140.34660 860 ft 129 kts 153°
2026-05-05 14:36 35.79644 140.35215 690 ft 131 kts 152°
2026-05-05 14:36 35.78861 140.35778 524 ft 132 kts 151°
2026-05-05 14:36 35.78069 140.36363 322 ft 133 kts 150°
2026-05-05 14:36 35.77285 140.36950 172 ft 131 kts 151°
2026-05-05 14:37 35.76580 140.37447 151 ft 94 kts 149°
2026-05-05 14:37 35.76122 140.37778 149 ft 62 kts 149°
2026-05-05 14:37 35.75811 140.38006 152 ft 44 kts 149°
2026-05-05 14:37 35.75599 140.38177 152 ft 32 kts 136°
2026-05-05 14:38 35.75507 140.38325 150 ft 15 kts 120°
2026-05-05 14:38 35.75470 140.38407 150 ft 11 kts 117°
2026-05-05 14:38 35.75465 140.38471 150 ft 2 kts 33°
2026-05-05 14:38 35.75498 140.38477 150 ft 8 kts 347°
2026-05-05 14:39 35.75573 140.38432 150 ft 16 kts 329°
2026-05-05 14:39 35.75658 140.38368 149 ft 2 kts 327°
2026-05-05 14:39 35.75669 140.38360 149 ft 0 kts 332°
2026-05-05 14:41 35.75672 140.38358 150 ft 2 kts 332°
2026-05-05 14:41 35.75704 140.38366 149 ft 10 kts 54°
2026-05-05 14:41 35.75728 140.38421 149 ft 1 kts 65°
2026-05-05 14:42 35.75758 140.38480 149 ft 10 kts 78°
2026-05-05 14:42 35.75761 140.38511 149 ft 6 kts 94°
2026-05-05 14:42 35.75731 140.38563 149 ft 10 kts 156°
2026-05-05 14:42 35.75681 140.38625 149 ft 9 kts 98°
2026-05-05 14:43 35.75709 140.38718 149 ft 14 kts 58°
2026-05-05 14:43 35.75791 140.38809 149 ft 18 kts 28°
2026-05-05 14:43 35.75917 140.38872 149 ft 21 kts 15°
2026-05-05 14:43 35.75989 140.38872 149 ft 8 kts 298°
2026-05-05 14:44 35.75986 140.38813 149 ft 9 kts 259°
2026-05-05 14:44 35.75981 140.38777 149 ft 3 kts 260°
2026-05-05 14:44 35.75980 140.38776 149 ft 0 kts 260°